Pueblo, CO

3:57 PM MST on December 06, 2019 (GMT -0700)
Pueblo Memorial

Weather History for KPUB - October, 2019

Change the Weather History Date:

Tuesday, October 15, 2019

  Actual Average Record
Temperature  
Mean Temperature 54 °F 52 °F  
Max Temperature 64 °F 70 °F 89 °F (2016)
Min Temperature 39 °F 34 °F 16 °F (2018)
Degree Days  
Heating Degree Days 12 13  
Month to date heating degree days 156  
Since 1 July heating degree days 254  
Cooling Degree Days 0 0  
Month to date cooling degree days 0  
Year to date cooling degree days 894  
Growing Degree Days 4 (Base 50)    
Moisture  
Dew Point 21 °F    
Average Humidity 31    
Maximum Humidity 49    
Minimum Humidity 19    
Precipitation  
Precipitation 0.00 in 0.02 in 1.02 in (1942)
Month to date precipitation 0.36  
Year to date precipitation 11.36  
Snow  
Snow - 0.00 in 0.60 in (1890)
Month to date snowfall 0.3  
Since 1 July snowfall 0.6  
Since 1 September snowfall 0.6  
Snow Depth -    
Sea Level Pressure  
Sea Level Pressure 30.10 in    
Wind  
Wind Speed 7 mph ()    
Max Wind Speed 22 mph    
Max Gust Speed 31 mph    
Visibility 9.8 miles    
Events      
T = Trace of Precipitation, MM = Missing Value Source: Averaged Metar Reports

Daily Weather History Graph

Daily Weather History Graph

Search for Another Location

Airport or City:

Astronomy

Oct. 15, 2019 Rise Set
Actual Time 7:06 AM MDT 6:20 PM MDT
Civil Twilight 6:40 AM MDT 6:46 PM MDT
Nautical Twilight 6:09 AM MDT 7:17 PM MDT
Astronomical Twilight 5:38 AM MDT 7:48 PM MDT
Moon 7:42 PM MDT (10/15) 8:38 AM MDT (10/15)
Length of Visible Light 12h 06m
Length of Day
11h 13m
Full, 97% of the Moon is Illuminated
Oct 15
Full
Oct 21
Last Quarter
Oct 27
New
Nov 4
First Quarter
Nov 12
Full

Hourly Weather History & Observations

Time (MDT) Temp. Windchill Dew Point Humidity Pressure Visibility Wind Dir Wind Speed Gust Speed Precip Events Conditions
12:53 AM 52.0 °F - 12.0 °F 20% 29.86 in 10.0 mi NW 6.9 mph - N/A   Clear
1:53 AM 52.0 °F - 10.9 °F 19% 29.88 in 10.0 mi WNW 3.5 mph - N/A   Clear
2:53 AM 51.1 °F - 15.1 °F 24% 29.90 in 10.0 mi North 10.4 mph - N/A   Clear
3:53 AM 45.0 °F 40.6 °F 15.1 °F 30% 29.93 in 10.0 mi West 8.1 mph - N/A   Clear
4:53 AM 48.9 °F - 12.9 °F 24% 29.96 in 10.0 mi North 5.8 mph - N/A   Clear
5:53 AM 46.9 °F - 18.0 °F 32% 30.04 in 10.0 mi North 21.9 mph 31.1 mph N/A   Clear
6:53 AM 46.0 °F 40.6 °F 24.1 °F 42% 30.12 in 10.0 mi NE 11.5 mph 23.0 mph N/A   Clear
7:53 AM 43.0 °F 41.3 °F 25.0 °F 49% 30.18 in 10.0 mi South 3.5 mph - N/A   Clear
8:53 AM 46.9 °F - 28.0 °F 48% 30.17 in 10.0 mi SSW 4.6 mph - N/A   Clear
9:53 AM 52.0 °F - 26.1 °F 37% 30.17 in 10.0 mi SSE 9.2 mph - N/A   Clear
10:53 AM 54.0 °F - 25.0 °F 33% 30.16 in 10.0 mi South 8.1 mph - N/A   Clear
11:53 AM 55.9 °F - 25.0 °F 30% 30.14 in 10.0 mi South 5.8 mph - N/A   Clear
12:53 PM 60.1 °F - 25.0 °F 26% 30.12 in 10.0 mi ENE 5.8 mph - N/A   Clear
1:53 PM 61.0 °F - 24.1 °F 24% 30.08 in 10.0 mi SSE 9.2 mph - N/A   Clear
2:53 PM 64.0 °F - 24.1 °F 22% 30.07 in 10.0 mi ESE 11.5 mph - N/A   Clear
3:53 PM 63.0 °F - 23.0 °F 22% 30.10 in 10.0 mi SE 11.5 mph - N/A   Clear
4:53 PM 63.0 °F - 24.1 °F 23% 30.09 in 10.0 mi SE 8.1 mph - N/A   Clear
5:53 PM 61.0 °F - 25.0 °F 25% 30.11 in 10.0 mi SE 9.2 mph - N/A   Clear
6:53 PM 57.0 °F - 25.0 °F 29% 30.14 in 10.0 mi ESE 3.5 mph - N/A   Clear
7:53 PM 51.1 °F - 23.0 °F 33% 30.20 in 10.0 mi Calm Calm - N/A   Clear
8:53 PM 44.1 °F 42.5 °F 19.0 °F 37% 30.24 in 10.0 mi NNW 3.5 mph - N/A   Clear
9:53 PM 43.0 °F 40.3 °F 19.9 °F 40% 30.25 in 4.0 mi NNW 4.6 mph - N/A   Haze
10:53 PM 43.0 °F 41.3 °F 21.0 °F 42% 30.26 in 10.0 mi East 3.5 mph - N/A   Clear
11:53 PM 39.0 °F - 19.0 °F 45% 30.26 in 10.0 mi Calm Calm - N/A   Clear